Weather in Yedey

Russia / Sakha (Yakutia) Republic     61°06′18″N   126°22′25″E
temp.,
°C
wind,
m/s
gust,
m/s
humid.,
%
clouds,
%
prec.,
mm/h
press.,
hPa
HPBL,
m
11 may, tue
tue1100:00+6sw118399 0.0 101110
03:00+5nne1190100 0.0 101212
06:00+5nne2597100 0.3 1012247
09:00+4ne2697100 1.6 1012335
12:00+4ne2397100 1.4 1012262
15:00+4nne2296100 1.6 1012259
18:00+4nnw1296100 0.0 1012232
21:00+3nnw2398100 0.0 1012206
12 may, wed
wed1200:00+2nnw1499100 0.0 1013256
03:00+2n2599100 0.0 1012393
06:00+1nne3797100 0.0 1011384
09:00+1nne3799100 1.0 1010369
12:00+2nne3897100 3.7 1010427
15:00+2n2699100 8.2 1010330
18:00+3nnw1698100 1.0 1011523
21:00+1wsw1199100 1.1 101212
13 may, thu
thu1300:00−2w119990 0.0 101211
03:00−3wnw1199100 0.0 101415
06:000nnw1288100 0.0 1014114
09:00+4nnw346891 0.0 1014863
12:00+7nnw345578 0.0 10131366
15:00+8nnw344682 0.0 10121652
18:00+8n2450100 0.0 1012940
21:00+2nw1175100 0.0 101310
14 may, fri
fri1400:000nw118055 0.0 101410
03:00−2wnw118350 0.0 101410
06:00+2nw116843 0.0 101464
09:00+8nnw12455 0.0 1014804
12:00+10nnw22355 0.0 10121805
15:00+11nw223334 0.0 10112232
18:00+11wnw223673 0.0 10112011
21:00+5w21625 0.0 101110
15 may, sat
sat1500:00+2sw11665 0.0 101210
03:00+1sw117299 0.0 101210
06:00+3ssw126898 0.0 101272
09:00+10ssw124613 0.0 1010694
12:00+11ssw2337100 0.0 10082086
15:00+13sw2330100 0.0 10062581
18:00+13sw333128 0.0 10052302
21:00+7ssw11575 0.0 100610